Flag for Canada Weather past 2 weeks in Gatineau, Quebec, Canada

Now
21 °F

Passing clouds.


Feels Like: 13 °F
Forecast: 16 / 37 °F
Wind: 7 mph from Northwest

Location: Ottawa Int'L. Ont.

Current Time: Apr 1, 2015 at 7:11:25 AM

Latest Report: Apr 1, 2015 at 6:00 AM


Visibility: 15 mi

Pressure: 30.04 "Hg

Humidity: 45%

Dew point: 3 °F

Location of GatineauLocation

Historic Weather in Gatineau — Graph

°F

Gatineau temperature yesterday

Maximum temperature yesterday: 36 °F (at 4:00 PM)
Minimum temperature yesterday: 23 °F (at 6:00 AM)
Average temperature yesterday: 29 °F

Past Weeks' High & Low Weather Summary

 TemperatureHumidityPressure
High41 °F (Mar 25, 3:00 PM)100% (Mar 17, 6:00 AM)30.42 "Hg (Mar 17, 6:00 AM)
Low1 °F (Mar 23, 7:00 AM)21% (Mar 31, 4:00 PM)29.50 "Hg (Mar 30, 9:00 AM)
Average25 °F62%30.03 "Hg
* Reported Mar 17 6:00 AM — Apr 1 6:00 AM, Gatineau, Weather by CustomWeather, © 2015

Note: Actual official high and low records may vary slightly from our data, if they occured in-between our weather recording intervals... More about our weather records

Advertising

Gatineau weather history for previous 24 hours

 ConditionsComfort  
Time TempWeatherWind HumidityBarometerVisibility
6:00 AM
Wed, Apr 1
21 °FPassing clouds.7 mph45%30.04 "Hg15 mi
5:00 AM19 °FClear.9 mph58%30.01 "Hg15 mi
4:00 AM21 °FClear.7 mph58%29.99 "Hg15 mi
3:00 AM23 °FClear.5 mph50%29.98 "Hg15 mi
2:00 AM25 °FClear.6 mph46%29.96 "Hg15 mi
1:00 AM27 °FClear.6 mph36%29.95 "Hg15 mi
12:00 AM28 °FClear.10 mph37%29.93 "Hg15 mi
11:00 PM
Tue, Mar 31
27 °FClear.7 mph50%29.92 "Hg15 mi
10:00 PM28 °FClear.6 mph40%29.90 "Hg15 mi
9:00 PM28 °FClear.5 mph40%29.90 "Hg15 mi
8:00 PM28 °FPassing clouds.6 mph47%29.89 "Hg15 mi
7:00 PM32 °FPassing clouds.8 mph40%29.86 "Hg15 mi
6:00 PM36 °FPassing clouds.9 mph32%29.85 "Hg15 mi
5:00 PM36 °FPassing clouds.5 mph23%29.83 "Hg15 mi
4:00 PM36 °FPassing clouds.10 mph21%29.82 "Hg15 mi
3:00 PM34 °FPassing clouds.8 mph27%29.82 "Hg15 mi
2:00 PM34 °FPassing clouds.7 mph25%29.83 "Hg15 mi
1:00 PM30 °FPassing clouds.8 mph31%29.84 "Hg15 mi
12:00 PM28 °FPassing clouds.8 mph37%29.85 "Hg15 mi
11:00 AM27 °FPassing clouds.8 mph33%29.87 "Hg15 mi
10:00 AM25 °FPassing clouds.9 mph42%29.88 "Hg15 mi
9:00 AM25 °FPassing clouds.10 mph54%29.88 "Hg15 mi
8:00 AM23 °FPassing clouds.12 mph63%29.88 "Hg15 mi
7:00 AM23 °FPassing clouds.12 mph68%29.86 "Hg15 mi
Weather by CustomWeather, © 2015

See weather overviewHow to use our weather pages